Location: Monrovia
(34.7865°N, 86.7139°W)
Time: 00:44:45
(UTC+00:00)

ARIANE 5 R/B - Pass Details

Date: 14 July 2020
Orbit: 749 x 794 km, 98.6° (Epoch: 12 August)

Event Time Altitude Azimuth Distance (km) Brightness Sun altitude
Rises 07:55:49 0° 23° (NNE) 3,240 7.0 -26.5°
Reaches altitude 10° 07:58:17 10° 31° (NNE) 2,317 6.0 -26.2°
Maximum altitude 08:03:01 37° 99° (E) 1,188 3.6 -25.7°
Enters shadow 08:04:30 31° 134° (SE) 1,347 3.6 -25.5°
